Torna al catalogo

FENGYUN 1C DEB

AttivoSSO
NORAD 29947·DEBRIS·🇨🇳 China

Lanciato May 10, 1999 da Taiyuan Satellite Launch Center

Loading…

Prossimi Passaggi (prossime 24 ore)

TLE

AggiornatoSource: Space-Track

Epoca: Sep 14, 2026, 08:29 UTC

1 29947U 99025JV  26257.35356579 -.00000004  00000-0  24458-4 0  9993
2 29947  98.8109 284.5183 0041097  71.8173 356.3840 14.03226060  6141

Traccia FENGYUN 1C DEB in tempo reale con AllMySat

Download on the App Store